N4RVE Weather Reports


Display with metric or nautical units.
time (UTC)temp
F
wind
direction
speed
MPH
gust
MPH
rain 1hr
in
rain 24hr
in
rain mn
in
humidity
%
barometer
mb
20190720093527 48 0.0 0.0 0.00 0.00 0.00 15 1026.1
20190720092518 48 0.0 0.0 0.00 0.00 0.00 16 1026.1
20190720091527 48 0.0 0.0 0.00 0.00 0.00 15 1026.1
20190720090519 49 0.0 0.0 0.00 0.00 0.00 15 1026.1
20190720085526 49 277 0.0 2.0 0.00 0.00 0.00 15 1026.1
20190720084519 49 272 0.0 4.0 0.00 0.00 0.00 14 1026.1
20190720083527 49 0.0 0.0 0.00 0.00 0.00 14 1026.1
20190720082519 49 269 0.0 4.0 0.00 0.00 0.00 14 1026.2
20190720081526 49 0.0 0.0 0.00 0.00 0.00 14 1026.3
20190720080518 49 0.0 0.0 0.00 0.00 0.00 14 1026.4
20190720075527 50 0.0 0.0 0.00 0.00 0.00 14 1026.4
20190720074519 50 0.0 0.0 0.00 0.00 0.00 14 1026.4
20190720073526 50 277 1.0 4.0 0.00 0.00 0.00 13 1026.4
20190720072518 50 0.0 0.0 0.00 0.00 0.00 13 1026.4
20190720071527 51 0.0 0.0 0.00 0.00 0.00 13 1026.2
20190720070519 51 286 3.0 4.0 0.00 0.00 0.00 12 1026.4
20190720055023 53 0.0 0.0 0.00 0.00 0.00 9 1026.5
20190720054030 54 0.0 0.0 0.00 0.00 0.00 7 1026.4
20190720053024 54 0.0 0.0 0.00 0.00 0.00 6 1026.4
20190720052032 54 0.0 0.0 0.00 0.00 0.00 6 1026.4
20190720051022 54 0.0 0.0 0.00 0.00 0.00 5 1026.4
20190720050032 54 0.0 0.0 0.00 0.00 0.00 4 1026.4
20190720045023 54 0.0 0.0 0.00 0.00 0.00 8 1026.3
20190720043526 54 0.0 0.0 0.00 0.00 0.00 8 1026.1
20190720042520 55 0.0 0.0 0.00 0.00 0.00 7 1026.3
20190720041526 55 0.0 0.0 0.00 0.00 0.00 6 1026.2
20190720040517 57 0.0 0.0 0.00 0.00 0.00 4 1026.1
20190720035526 59 0.0 0.0 0.00 0.00 0.00 1 1026.1
20190720034031 62 0.0 0.0 0.00 0.00 0.00 99 1026.1
20190720033022 63 0.0 0.0 0.00 0.00 0.00 99 1026.4
20190720032030 63 0.0 0.0 0.00 0.00 0.00 99 1026.4
20190720031023 64 0.0 0.0 0.00 0.00 0.00 99 1026.4
20190720030030 64 262 2.0 7.0 0.00 0.00 0.00 99 1026.4
20190720025023 65 255 3.0 7.0 0.00 0.00 0.00 99 1026.4
20190720024030 65 257 2.0 4.0 0.00 0.00 0.00 95 1026.4
20190720023022 65 243 3.0 9.0 0.00 0.00 0.00 90 1026.5
20190720022031 65 249 3.0 7.0 0.00 0.00 0.00 89 1026.5
20190720021022 66 252 2.0 7.0 0.00 0.00 0.00 90 1026.5
20190720020030 66 251 4.0 7.0 0.00 0.00 0.00 89 1026.6
20190720015021 67 240 3.0 7.0 0.00 0.00 0.00 87 1026.6
20190720014030 67 247 2.0 4.0 0.00 0.00 0.00 88 1026.6
20190720013023 67 225 2.0 7.0 0.00 0.00 0.00 87 1026.7
20190720012030 66 233 0.0 4.0 0.00 0.00 0.00 89 1026.8
20190720011021 66 188 1.0 7.0 0.00 0.00 0.00 87 1026.9
20190720010030 66 214 3.0 7.0 0.00 0.00 0.00 88 1027.0
20190720005022 67 228 4.0 9.0 0.00 0.00 0.00 89 1027.1
20190720004029 67 229 3.0 7.0 0.00 0.00 0.00 87 1027.1
20190720003022 67 222 2.0 9.0 0.00 0.00 0.00 83 1027.3
20190720002030 67 217 5.0 9.0 0.00 0.00 0.00 92 1027.4
20190720001023 67 227 4.0 9.0 0.00 0.00 0.00 91 1027.4
20190720000030 66 167 4.0 9.0 0.00 0.00 0.00 89 1027.4
20190719235021 66 197 4.0 7.0 0.00 0.00 0.00 88 1027.4
20190719234030 66 183 2.0 7.0 0.00 0.00 0.00 90 1027.5
20190719233021 67 120 5.0 9.0 0.00 0.00 0.00 90 1027.4
20190719232029 67 201 4.0 9.0 0.00 0.00 0.00 89 1027.5
20190719231022 67 153 4.0 7.0 0.00 0.00 0.00 90 1027.4
20190719230029 67 162 3.0 7.0 0.00 0.00 0.00 91 1027.4
20190719225021 66 202 4.0 7.0 0.00 0.00 0.00 89 1027.4
20190719224029 66 185 4.0 9.0 0.00 0.00 0.00 89 1027.6
20190719223022 66 145 1.0 7.0 0.00 0.00 0.00 91 1027.7
20190719222030 66 152 1.0 7.0 0.00 0.00 0.00 92 1027.6
20190719221022 65 199 6.0 12.0 0.00 0.00 0.00 90 1027.6
20190719220030 65 156 3.0 7.0 0.00 0.00 0.00 93 1027.7
20190719215021 65 182 3.0 7.0 0.00 0.00 0.00 92 1027.5
20190719214030 65 162 5.0 9.0 0.00 0.00 0.00 89 1027.7
20190719213023 65 192 6.0 9.0 0.00 0.00 0.00 89 1027.8
20190719212029 65 188 3.0 9.0 0.00 0.00 0.00 89 1027.8
20190719211022 64 155 3.0 7.0 0.00 0.00 0.00 93 1027.7
20190719210030 64 105 5.0 9.0 0.00 0.00 0.00 95 1027.8
20190719205021 64 137 5.0 9.0 0.00 0.00 0.00 98 1027.5
20190719204029 63 175 3.0 9.0 0.00 0.00 0.00 95 1027.7
20190719203021 63 205 5.0 9.0 0.00 0.00 0.00 98 1027.7
20190719202029 63 129 5.0 12.0 0.00 0.00 0.00 99 1027.8
20190719201021 63 124 5.0 9.0 0.00 0.00 0.00 99 1027.8
20190719200029 63 132 5.0 9.0 0.00 0.00 0.00 99 1027.8
20190719195021 63 154 5.0 9.0 0.00 0.00 0.00 99 1027.8
20190719194029 63 157 4.0 9.0 0.00 0.00 0.00 99 1027.8
20190719193022 63 152 3.0 7.0 0.00 0.00 0.00 99 1027.8
20190719192030 63 122 6.0 9.0 0.00 0.00 0.00 99 1027.5
20190719191021 63 131 4.0 15.0 0.00 0.00 0.00 98 1027.4
20190719190030 63 104 3.0 9.0 0.00 0.00 0.00 99 1027.4
20190719185021 64 110 5.0 9.0 0.00 0.00 0.00 99 1027.4
20190719184030 63 191 5.0 9.0 0.00 0.00 0.00 99 1027.3
20190719183021 63 191 2.0 7.0 0.00 0.00 0.00 99 1027.4
20190719182029 63 194 4.0 9.0 0.00 0.00 0.00 99 1027.3
20190719181021 63 149 5.0 9.0 0.00 0.00 0.00 99 1027.3
20190719180029 63 175 4.0 9.0 0.00 0.00 0.00 99 1027.2
20190719175021 62 109 2.0 7.0 0.00 0.00 0.00 99 1027.0
20190719174029 62 112 0.0 2.0 0.00 0.00 0.00 99 1026.9
20190719173021 62 124 1.0 7.0 0.00 0.00 0.00 99 1027.0
20190719172029 62 59 0.0 7.0 0.00 0.00 0.00 99 1027.0
20190719171021 62 21 0.0 2.0 0.00 0.00 0.00 99 1027.0
20190719170029 61 0.0 0.0 0.00 0.00 0.00 99 1026.8
20190719165021 60 0.0 0.0 0.00 0.00 0.00 99 1026.8
20190719164029 59 0.0 0.0 0.00 0.00 0.00 99 1026.7
20190719163021 59 55 0.0 4.0 0.00 0.00 0.00 99 1026.4
20190719160029 59 48 0.0 2.0 0.00 0.00 0.00 99 1026.4
20190719155021 59 0.0 0.0 0.00 0.00 0.00 99 1026.4
20190719154029 58 0.0 0.0 0.00 0.00 0.00 99 1026.1
20190719152517 57 0.0 0.0 0.00 0.00 0.00 88 1025.9
20190719150518 56 0.0 0.0 0.00 0.00 0.00 1 1025.7
20190719144517 56 0.0 0.0 0.00 0.00 0.00 1 1025.7
20190719141525 50 0.0 0.0 0.00 0.00 0.00 4 1025.4
20190719140518 49 0.0 0.0 0.00 0.00 0.00 10 1025.4
20190719135525 48 0.0 0.0 0.00 0.00 0.00 12 1025.3
20190719134516 48 0.0 0.0 0.00 0.00 0.00 14 1025.3
20190719133525 48 0.0 0.0 0.00 0.00 0.00 14 1025.2
20190719132517 47 288 2.0 4.0 0.00 0.00 0.00 15 1025.0
20190719131525 47 0.0 0.0 0.00 0.00 0.00 16 1024.9
20190719130517 47 0.0 0.0 0.00 0.00 0.00 17 1024.8
20190719125525 47 0.0 0.0 0.00 0.00 0.00 17 1024.8
20190719124517 47 0.0 0.0 0.00 0.00 0.00 17 1024.8
20190719123525 47 0.0 0.0 0.00 0.00 0.00 17 1024.7
20190719122517 48 262 0.0 2.0 0.00 0.00 0.00 17 1024.7
20190719121524 48 279 2.0 4.0 0.00 0.00 0.00 16 1024.7
20190719120516 48 269 3.0 4.0 0.00 0.00 0.00 16 1024.4
20190719115525 48 0.0 0.0 0.00 0.00 0.00 16 1024.5
20190719114517 48 0.0 0.0 0.00 0.00 0.00 15 1024.5
20190719113525 49 0.0 0.0 0.00 0.00 0.00 15 1024.4
20190719112516 49 0.0 0.0 0.00 0.00 0.00 14 1024.4
20190719111525 49 0.0 0.0 0.00 0.00 0.00 14 1024.4
20190719110517 50 0.0 0.0 0.00 0.00 0.00 13 1024.4
20190719105524 50 0.0 0.0 0.00 0.00 0.00 13 1024.4
20190719104516 50 0.0 0.0 0.00 0.00 0.00 13 1024.4
20190719103524 50 0.0 0.0 0.00 0.00 0.00 13 1024.3
20190719102517 50 0.0 0.0 0.00 0.00 0.00 12 1024.3
20190719101525 50 0.0 0.0 0.00 0.00 0.00 11 1024.1
20190719100516 50 0.0 0.0 0.00 0.00 0.00 12 1024.0
20190719095525 51 0.0 0.0 0.00 0.00 0.00 10 1024.2
20190719094518 51 0.0 0.0 0.00 0.00 0.00 9 1024.0